User: anonymous   Login
Location: Pilipovskiye Korichintsy
(49.1833°N, 27.4667°E)
Time: 21:35:51
(UTC+00:00)
Language:

Cosmos 1544 - Orbit

View from above orbital plane
View from above orbital plane
View from above satellite
View from above satellite

Ground track
Ground track

The orbit data is extracted from the following two-line orbital elements,

1 14819U 84027A   20263.50357765 +.00000627 +00000-0 +21492-4 0  9992
2 14819 082.4798 269.0407 0014077 157.9544 202.2304 15.28096090997238
Epoch (UTC): 19 September 2020 12:05:09
Eccentricity: 0.0014077
inclination: 82.4798°
perigee height: 472 km
apogee height: 491 km
right ascension of ascending node: 269.0407°
argument of perigee: 157.9544°
revolutions per day: 15.28096090
mean anomaly at epoch: 202.2304°
orbit number at epoch: 99723

The dashed part of the orbit path shows where the satellite is in the earth's shadow,  

DLR